Starlink 30818

operational
NORAD ID: 58217 Int'l Des: 2023-170 Owner: SPXS Country: US Constellation: starlink
LEOCIRCULAR

关于 Starlink 30818

正在加载描述...

实时位置

正在加载3D地球...

即将过境

高度历史

Altitude vs Time

uPlot chart will show altitude changes over time

两行轨道根数

1 58217U 23170M 25304.00506771 .00000590 00000-0 58767-4 0 9997
2 58217 43.0021 180.4088 0001101 255.7246 104.3474 15.02536875110779
Epoch: Oct 31, 2025 • Age: 15 hours

当前状态

高度 558.3 km
速度 7.59 km/s
星下点 14.93°N, 72.6°E
发射日期 Nov 4, 2023
运行时间 1.9 years
类型 internet

技术详情

分类 Payload
质量 730.00 kg
干质量 700.00 kg
总质量 730.00 kg
长度 0.30 m
直径 4.10 m
跨度 29.00 m
形状 Box + pan
制造商 SPXS
平台类型 Starlink V2M
阶段状态 In Orbit
所有者/国家 SPXS/US

大型星座

Loading constellations...